Time,TemperatureF,DewpointF,PressureIn,WindDirection,WindDirectionDegrees,WindSpeedMPH,WindSpeedGustMPH,Humidity,HourlyPrecipIn,Conditions,Clouds,dailyrainin,SoftwareType,DateUTC
2014-04-23 00:03:00,42.3,15.8,30.07,NE,45,13.0,14.0,34,0.00,,,0.00,meteohub,2014-04-23 05:03:00,
2014-04-23 00:08:00,41.7,16.7,30.07,NE,45,10.0,14.0,36,0.00,,,0.00,meteohub,2014-04-23 05:08:00,
2014-04-23 00:13:00,41.0,16.7,30.07,NNE,23,8.0,14.0,37,0.00,,,0.00,meteohub,2014-04-23 05:13:00,
2014-04-23 00:18:00,40.8,17.2,30.08,NE,45,9.0,13.0,38,0.00,,,0.00,meteohub,2014-04-23 05:18:00,
2014-04-23 00:23:00,40.6,17.6,30.08,North,0,9.0,13.0,39,0.00,,,0.00,meteohub,2014-04-23 05:23:00,
2014-04-23 00:28:00,40.3,18.0,30.08,NE,45,9.0,11.0,40,0.00,,,0.00,meteohub,2014-04-23 05:28:00,
2014-04-23 00:33:00,39.9,18.1,30.08,NE,45,6.0,11.0,41,0.00,,,0.00,meteohub,2014-04-23 05:33:00,
2014-04-23 00:38:00,39.7,18.0,30.08,NE,45,7.0,11.0,41,0.00,,,0.00,meteohub,2014-04-23 05:38:00,
2014-04-23 00:43:00,39.7,18.0,30.08,North,0,8.0,9.0,41,0.00,,,0.00,meteohub,2014-04-23 05:43:00,
2014-04-23 00:48:00,39.7,18.0,30.08,NE,45,8.0,9.0,41,0.00,,,0.00,meteohub,2014-04-23 05:48:00,
2014-04-23 00:54:00,39.6,17.8,30.09,NE,45,6.0,9.0,41,0.00,,,0.00,meteohub,2014-04-23 05:54:00,
2014-04-23 00:59:00,39.4,18.1,30.09,NE,45,6.0,9.0,42,0.00,,,0.00,meteohub,2014-04-23 05:59:00,
2014-04-23 01:04:00,39.4,18.1,30.09,NE,45,5.0,8.0,42,0.00,,,0.00,meteohub,2014-04-23 06:04:00,
2014-04-23 01:09:00,39.2,18.0,30.09,North,0,6.0,8.0,42,0.00,,,0.00,meteohub,2014-04-23 06:09:00,
2014-04-23 01:14:00,39.4,18.1,30.08,North,0,6.0,6.0,42,0.00,,,0.00,meteohub,2014-04-23 06:14:00,
2014-04-23 01:19:00,39.4,18.1,30.09,North,0,6.0,6.0,42,0.00,,,0.00,meteohub,2014-04-23 06:19:00,
2014-04-23 01:24:00,39.4,18.7,30.08,North,0,7.0,7.0,43,0.00,,,0.00,meteohub,2014-04-23 06:24:00,
2014-04-23 01:29:00,39.2,18.5,30.09,North,0,7.0,7.0,43,0.00,,,0.00,meteohub,2014-04-23 06:29:00,
2014-04-23 01:34:00,39.2,19.0,30.09,North,0,6.0,8.0,44,0.00,,,0.00,meteohub,2014-04-23 06:34:00,
2014-04-23 01:39:00,39.0,18.9,30.09,North,0,5.0,8.0,44,0.00,,,0.00,meteohub,2014-04-23 06:39:00,
2014-04-23 01:44:00,39.0,18.9,30.09,North,0,6.0,8.0,44,0.00,,,0.00,meteohub,2014-04-23 06:44:00,
2014-04-23 01:49:00,38.8,18.9,30.09,North,0,5.0,8.0,44,0.00,,,0.00,meteohub,2014-04-23 06:49:00,
2014-04-23 01:54:00,38.8,19.4,30.08,North,0,6.0,7.0,45,0.00,,,0.00,meteohub,2014-04-23 06:54:00,
2014-04-23 01:59:00,38.7,19.2,30.08,North,0,4.0,7.0,45,0.00,,,0.00,meteohub,2014-04-23 06:59:00,
2014-04-23 02:05:00,38.7,19.2,30.08,North,0,4.0,7.0,45,0.00,,,0.00,meteohub,2014-04-23 07:05:00,
2014-04-23 02:10:00,38.1,19.2,30.08,North,0,5.0,7.0,46,0.00,,,0.00,meteohub,2014-04-23 07:10:00,
2014-04-23 02:15:00,37.8,19.4,30.09,North,0,4.0,6.0,47,0.00,,,0.00,meteohub,2014-04-23 07:15:00,
2014-04-23 02:20:00,37.6,19.2,30.09,North,0,4.0,5.0,47,0.00,,,0.00,meteohub,2014-04-23 07:20:00,
2014-04-23 02:25:00,37.6,19.6,30.08,North,0,5.0,5.0,48,0.00,,,0.00,meteohub,2014-04-23 07:25:00,
2014-04-23 02:30:00,37.6,19.6,30.09,North,0,5.0,5.0,48,0.00,,,0.00,meteohub,2014-04-23 07:30:00,
2014-04-23 02:35:00,37.4,19.6,30.09,North,0,4.0,5.0,48,0.00,,,0.00,meteohub,2014-04-23 07:35:00,
2014-04-23 02:40:00,37.4,19.9,30.09,North,0,5.0,5.0,49,0.00,,,0.00,meteohub,2014-04-23 07:40:00,
2014-04-23 02:45:00,37.4,19.9,30.08,NE,45,7.0,8.0,49,0.00,,,0.00,meteohub,2014-04-23 07:45:00,
2014-04-23 02:50:00,37.0,20.1,30.08,NE,45,7.0,8.0,50,0.00,,,0.00,meteohub,2014-04-23 07:50:00,
2014-04-23 02:55:00,36.7,20.3,30.08,NNE,23,7.0,8.0,51,0.00,,,0.00,meteohub,2014-04-23 07:55:00,
2014-04-23 03:00:00,36.7,20.3,30.08,NNE,23,8.0,8.0,51,0.00,,,0.00,meteohub,2014-04-23 08:00:00,
2014-04-23 03:05:00,36.7,20.3,30.09,NNE,23,8.0,8.0,51,0.00,,,0.00,meteohub,2014-04-23 08:05:00,
2014-04-23 03:11:00,36.5,20.5,30.08,NNE,23,8.0,8.0,52,0.00,,,0.00,meteohub,2014-04-23 08:11:00,
2014-04-23 03:16:00,36.3,20.8,30.09,NE,45,7.0,8.0,53,0.00,,,0.00,meteohub,2014-04-23 08:16:00,
2014-04-23 03:21:00,36.1,20.7,30.09,NE,45,7.0,8.0,53,0.00,,,0.00,meteohub,2014-04-23 08:21:00,
2014-04-23 03:26:00,36.1,20.7,30.08,NE,45,8.0,8.0,53,0.00,,,0.00,meteohub,2014-04-23 08:26:00,
2014-04-23 03:31:00,36.1,21.0,30.08,NE,45,12.0,12.0,54,0.00,,,0.00,meteohub,2014-04-23 08:31:00,
2014-04-23 03:36:00,36.1,21.0,30.08,NE,45,11.0,13.0,54,0.00,,,0.00,meteohub,2014-04-23 08:36:00,
2014-04-23 03:41:00,36.0,21.4,30.09,North,0,8.0,13.0,55,0.00,,,0.00,meteohub,2014-04-23 08:41:00,
2014-04-23 03:46:00,35.4,20.8,30.09,NE,45,6.0,13.0,55,0.00,,,0.00,meteohub,2014-04-23 08:46:00,
2014-04-23 03:51:00,35.2,21.2,30.09,NE,45,9.0,11.0,56,0.00,,,0.00,meteohub,2014-04-23 08:51:00,
2014-04-23 03:56:00,35.4,21.7,30.09,NE,45,9.0,10.0,57,0.00,,,0.00,meteohub,2014-04-23 08:56:00,
2014-04-23 04:01:00,35.4,21.7,30.09,NE,45,8.0,10.0,57,0.00,,,0.00,meteohub,2014-04-23 09:01:00,
2014-04-23 04:06:00,35.4,21.7,30.09,NE,45,8.0,10.0,57,0.00,,,0.00,meteohub,2014-04-23 09:06:00,
2014-04-23 04:11:00,35.2,21.9,30.10,NE,45,8.0,9.0,58,0.00,,,0.00,meteohub,2014-04-23 09:11:00,
2014-04-23 04:17:00,35.1,21.7,30.10,NE,45,8.0,8.0,58,0.00,,,0.00,meteohub,2014-04-23 09:17:00,
2014-04-23 04:22:00,34.9,21.9,30.10,NE,45,8.0,10.0,59,0.00,,,0.00,meteohub,2014-04-23 09:22:00,
2014-04-23 04:27:00,34.7,22.6,30.09,NE,45,11.0,11.0,61,0.00,,,0.00,meteohub,2014-04-23 09:27:00,
2014-04-23 04:32:00,34.5,22.5,30.09,NE,45,8.0,11.0,61,0.00,,,0.00,meteohub,2014-04-23 09:32:00,
2014-04-23 04:37:00,34.3,22.3,30.09,North,0,9.0,11.0,61,0.00,,,0.00,meteohub,2014-04-23 09:37:00,
2014-04-23 04:42:00,34.0,22.3,30.09,NNE,23,8.0,11.0,62,0.00,,,0.00,meteohub,2014-04-23 09:42:00,
2014-04-23 04:47:00,33.8,22.5,30.10,NE,45,8.0,9.0,63,0.00,,,0.00,meteohub,2014-04-23 09:47:00,
2014-04-23 04:52:00,34.0,22.6,30.10,NE,45,7.0,9.0,63,0.00,,,0.00,meteohub,2014-04-23 09:52:00,
2014-04-23 04:57:00,33.6,22.5,30.10,NE,45,4.0,8.0,63,0.00,,,0.00,meteohub,2014-04-23 09:57:00,
2014-04-23 05:02:00,33.6,22.5,30.10,NE,45,5.0,8.0,63,0.00,,,0.00,meteohub,2014-04-23 10:02:00,
2014-04-23 05:07:00,33.6,22.5,30.10,NE,45,5.0,7.0,63,0.00,,,0.00,meteohub,2014-04-23 10:07:00,
2014-04-23 05:12:00,33.6,22.5,30.10,ENE,68,4.0,5.0,63,0.00,,,0.00,meteohub,2014-04-23 10:12:00,
2014-04-23 05:17:00,33.6,22.5,30.10,East,90,3.0,6.0,63,0.00,,,0.00,meteohub,2014-04-23 10:17:00,
2014-04-23 05:22:00,33.4,21.7,30.10,NE,45,4.0,6.0,62,0.00,,,0.00,meteohub,2014-04-23 10:22:00,
2014-04-23 05:27:00,33.4,22.3,30.10,ENE,68,3.0,4.0,63,0.00,,,0.00,meteohub,2014-04-23 10:27:00,
2014-04-23 05:32:00,33.4,22.3,30.10,NE,45,2.0,4.0,63,0.00,,,0.00,meteohub,2014-04-23 10:32:00,
2014-04-23 05:37:00,33.6,22.5,30.11,NE,45,3.0,4.0,63,0.00,,,0.00,meteohub,2014-04-23 10:37:00,
2014-04-23 05:42:00,33.6,22.5,30.11,NE,45,3.0,4.0,63,0.00,,,0.00,meteohub,2014-04-23 10:42:00,
2014-04-23 05:47:00,33.4,22.3,30.11,NE,45,2.0,3.0,63,0.00,,,0.00,meteohub,2014-04-23 10:47:00,
2014-04-23 05:52:00,33.4,22.3,30.11,NE,45,2.0,3.0,63,0.00,,,0.00,meteohub,2014-04-23 10:52:00,
2014-04-23 05:57:00,33.4,22.3,30.11,NE,45,0.0,3.0,63,0.00,,,0.00,meteohub,2014-04-23 10:57:00,
2014-04-23 06:02:00,33.6,22.5,30.11,ENE,68,2.0,3.0,63,0.00,,,0.00,meteohub,2014-04-23 11:02:00,
2014-04-23 06:07:00,33.6,22.5,30.12,SE,135,0.0,3.0,63,0.00,,,0.00,meteohub,2014-04-23 11:07:00,
2014-04-23 06:12:00,34.0,22.6,30.12,SE,135,2.0,3.0,63,0.00,,,0.00,meteohub,2014-04-23 11:12:00,
2014-04-23 06:17:00,34.2,22.8,30.12,South,180,0.0,3.0,63,0.00,,,0.00,meteohub,2014-04-23 11:17:00,
2014-04-23 06:22:00,34.3,22.6,30.12,SW,225,4.0,4.0,62,0.00,,,0.00,meteohub,2014-04-23 11:22:00,
2014-04-23 06:28:00,34.5,22.8,30.12,SW,225,3.0,4.0,62,0.00,,,0.00,meteohub,2014-04-23 11:28:00,
2014-04-23 06:33:00,34.3,22.6,30.11,SW,225,5.0,5.0,62,0.00,,,0.00,meteohub,2014-04-23 11:33:00,
2014-04-23 06:38:00,34.2,22.5,30.11,SW,225,3.0,6.0,62,0.00,,,0.00,meteohub,2014-04-23 11:38:00,
2014-04-23 06:43:00,34.2,22.5,30.12,SW,225,4.0,6.0,62,0.00,,,0.00,meteohub,2014-04-23 11:43:00,
2014-04-23 06:48:00,34.5,23.2,30.12,South,180,4.0,6.0,63,0.00,,,0.00,meteohub,2014-04-23 11:48:00,
2014-04-23 06:53:00,34.9,23.5,30.12,South,180,4.0,6.0,63,0.00,,,0.00,meteohub,2014-04-23 11:53:00,
2014-04-23 06:58:00,35.2,23.9,30.12,South,180,4.0,6.0,63,0.00,,,0.00,meteohub,2014-04-23 11:58:00,
2014-04-23 07:03:00,35.4,24.1,30.12,South,180,5.0,6.0,63,0.00,,,0.00,meteohub,2014-04-23 12:03:00,
2014-04-23 07:08:00,36.0,24.3,30.13,South,180,3.0,6.0,62,0.00,,,0.00,meteohub,2014-04-23 12:08:00,
2014-04-23 07:13:00,36.5,24.8,30.12,South,180,4.0,6.0,62,0.00,,,0.00,meteohub,2014-04-23 12:13:00,
2014-04-23 07:18:00,37.0,24.8,30.12,South,180,4.0,5.0,61,0.00,,,0.00,meteohub,2014-04-23 12:18:00,
2014-04-23 07:23:00,37.4,24.8,30.12,South,180,3.0,5.0,60,0.00,,,0.00,meteohub,2014-04-23 12:23:00,
2014-04-23 07:28:00,37.9,25.0,30.12,South,180,4.0,4.0,59,0.00,,,0.00,meteohub,2014-04-23 12:28:00,
2014-04-23 07:33:00,38.5,25.3,30.12,South,180,6.0,6.0,59,0.00,,,0.00,meteohub,2014-04-23 12:33:00,
2014-04-23 07:39:00,38.8,24.4,30.13,South,180,5.0,7.0,56,0.00,,,0.00,meteohub,2014-04-23 12:39:00,
2014-04-23 07:44:00,39.2,24.8,30.13,South,180,4.0,7.0,56,0.00,,,0.00,meteohub,2014-04-23 12:44:00,
2014-04-23 07:49:00,39.4,24.6,30.13,SSW,203,6.0,7.0,55,0.00,,,0.00,meteohub,2014-04-23 12:49:00,
2014-04-23 07:54:00,39.6,23.9,30.13,SSW,203,4.0,7.0,53,0.00,,,0.00,meteohub,2014-04-23 12:54:00,
2014-04-23 07:59:00,39.7,23.5,30.13,South,180,8.0,8.0,52,0.00,,,0.00,meteohub,2014-04-23 12:59:00,
2014-04-23 08:04:00,39.7,23.2,30.13,South,180,7.0,8.0,51,0.00,,,0.00,meteohub,2014-04-23 13:04:00,
2014-04-23 08:09:00,40.3,23.5,30.13,South,180,8.0,8.0,51,0.00,,,0.00,meteohub,2014-04-23 13:09:00,
2014-04-23 08:14:00,40.6,22.5,30.13,South,180,11.0,11.0,48,0.00,,,0.00,meteohub,2014-04-23 13:14:00,
2014-04-23 08:19:00,41.0,22.3,30.13,South,180,8.0,11.0,47,0.00,,,0.00,meteohub,2014-04-23 13:19:00,
2014-04-23 08:24:00,41.0,22.3,30.13,South,180,6.0,11.0,47,0.00,,,0.00,meteohub,2014-04-23 13:24:00,
2014-04-23 08:30:00,40.5,21.7,30.14,South,180,6.0,11.0,47,0.00,,,0.00,meteohub,2014-04-23 13:30:00,
2014-04-23 08:35:00,40.3,21.7,30.13,South,180,8.0,10.0,47,0.00,,,0.00,meteohub,2014-04-23 13:35:00,
2014-04-23 08:40:00,40.6,21.9,30.14,South,180,6.0,10.0,47,0.00,,,0.00,meteohub,2014-04-23 13:40:00,
2014-04-23 08:45:00,41.5,21.7,30.14,South,180,8.0,10.0,45,0.00,,,0.00,meteohub,2014-04-23 13:45:00,
2014-04-23 08:50:00,41.9,21.6,30.14,South,180,5.0,8.0,44,0.00,,,0.00,meteohub,2014-04-23 13:50:00,
2014-04-23 08:55:00,42.3,20.8,30.14,South,180,8.0,8.0,42,0.00,,,0.00,meteohub,2014-04-23 13:55:00,
2014-04-23 09:00:00,42.8,21.4,30.13,South,180,3.0,8.0,42,0.00,,,0.00,meteohub,2014-04-23 14:00:00,
2014-04-23 09:05:00,42.8,21.4,30.13,South,180,3.0,8.0,42,0.00,,,0.00,meteohub,2014-04-23 14:05:00,
2014-04-23 09:10:00,43.5,19.0,30.13,South,180,5.0,9.0,37,0.00,,,0.00,meteohub,2014-04-23 14:10:00,
2014-04-23 09:15:00,43.7,20.3,30.13,South,180,8.0,9.0,39,0.00,,,0.00,meteohub,2014-04-23 14:15:00,
2014-04-23 09:20:00,43.9,18.0,30.13,South,180,8.0,9.0,35,0.00,,,0.00,meteohub,2014-04-23 14:20:00,
2014-04-23 09:25:00,43.7,17.2,30.14,South,180,7.0,9.0,34,0.00,,,0.00,meteohub,2014-04-23 14:25:00,
2014-04-23 09:30:00,43.7,16.5,30.14,South,180,6.0,9.0,33,0.00,,,0.00,meteohub,2014-04-23 14:30:00,
2014-04-23 09:36:00,44.2,14.7,30.14,SE,135,8.0,10.0,30,0.00,,,0.00,meteohub,2014-04-23 14:36:00,
2014-04-23 09:41:00,44.6,14.4,30.13,SE,135,10.0,11.0,29,0.00,,,0.00,meteohub,2014-04-23 14:41:00,
2014-04-23 09:46:00,44.2,14.0,30.14,SE,135,6.0,11.0,29,0.00,,,0.00,meteohub,2014-04-23 14:46:00,
2014-04-23 09:51:00,44.4,15.6,30.14,SE,135,10.0,11.0,31,0.00,,,0.00,meteohub,2014-04-23 14:51:00,
2014-04-23 09:56:00,45.1,14.7,30.13,SE,135,9.0,10.0,29,0.00,,,0.00,meteohub,2014-04-23 14:56:00,
2014-04-23 10:01:00,45.5,14.4,30.13,East,90,7.0,10.0,28,0.00,,,0.00,meteohub,2014-04-23 15:01:00,
2014-04-23 10:06:00,45.5,14.4,30.13,East,90,7.0,10.0,28,0.00,,,0.00,meteohub,2014-04-23 15:06:00,
2014-04-23 10:11:00,46.6,11.7,30.13,NE,45,11.0,11.0,24,0.00,,,0.00,meteohub,2014-04-23 15:11:00,
2014-04-23 10:16:00,46.2,13.3,30.13,East,90,6.0,11.0,26,0.00,,,0.00,meteohub,2014-04-23 15:16:00,
2014-04-23 10:21:00,46.8,10.9,30.12,SE,135,13.0,13.0,23,0.00,,,0.00,meteohub,2014-04-23 15:21:00,
2014-04-23 10:26:00,46.8,11.8,30.13,East,90,9.0,15.0,24,0.00,,,0.00,meteohub,2014-04-23 15:26:00,
2014-04-23 10:31:00,46.8,11.8,30.13,NE,45,9.0,15.0,24,0.00,,,0.00,meteohub,2014-04-23 15:31:00,
2014-04-23 10:36:00,47.5,12.6,30.13,NE,45,4.0,15.0,24,0.00,,,0.00,meteohub,2014-04-23 15:36:00,
2014-04-23 10:41:00,47.7,10.6,30.12,NE,45,6.0,14.0,22,0.00,,,0.00,meteohub,2014-04-23 15:41:00,
2014-04-23 10:47:00,48.0,10.9,30.12,East,90,9.0,15.0,22,0.00,,,0.00,meteohub,2014-04-23 15:47:00,
2014-04-23 10:52:00,48.2,11.1,30.12,East,90,5.0,15.0,22,0.00,,,0.00,meteohub,2014-04-23 15:52:00,
2014-04-23 10:57:00,48.6,11.5,30.12,East,90,10.0,15.0,22,0.00,,,0.00,meteohub,2014-04-23 15:57:00,
2014-04-23 11:02:00,48.6,11.5,30.13,SE,135,7.0,12.0,22,0.00,,,0.00,meteohub,2014-04-23 16:02:00,
2014-04-23 11:07:00,49.1,10.8,30.13,East,90,11.0,12.0,21,0.00,,,0.00,meteohub,2014-04-23 16:07:00,
2014-04-23 11:12:00,49.3,8.8,30.13,NE,45,12.0,12.0,19,0.00,,,0.00,meteohub,2014-04-23 16:12:00,
2014-04-23 11:17:00,49.6,10.2,30.13,NE,45,10.0,12.0,20,0.00,,,0.00,meteohub,2014-04-23 16:17:00,
2014-04-23 11:22:00,49.6,10.2,30.13,NE,45,9.0,12.0,20,0.00,,,0.00,meteohub,2014-04-23 16:22:00,
2014-04-23 11:27:00,49.6,7.9,30.13,NE,45,5.0,14.0,18,0.00,,,0.00,meteohub,2014-04-23 16:27:00,
2014-04-23 11:32:00,50.0,9.3,30.13,East,90,5.0,14.0,19,0.00,,,0.00,meteohub,2014-04-23 16:32:00,
2014-04-23 11:37:00,50.4,9.7,30.13,SE,135,3.0,14.0,19,0.00,,,0.00,meteohub,2014-04-23 16:37:00,
2014-04-23 11:42:00,50.7,9.9,30.12,SE,135,8.0,11.0,19,0.00,,,0.00,meteohub,2014-04-23 16:42:00,
2014-04-23 11:47:00,51.1,7.7,30.12,East,90,8.0,9.0,17,0.00,,,0.00,meteohub,2014-04-23 16:47:00,
2014-04-23 11:52:00,51.1,6.4,30.12,NE,45,14.0,14.0,16,0.00,,,0.00,meteohub,2014-04-23 16:52:00,
2014-04-23 11:57:00,51.1,7.7,30.12,NE,45,6.0,14.0,17,0.00,,,0.00,meteohub,2014-04-23 16:57:00,
2014-04-23 12:02:00,50.9,4.8,30.12,NE,45,9.0,14.0,15,0.00,,,0.00,meteohub,2014-04-23 17:02:00,
2014-04-23 12:07:00,50.7,7.5,30.12,SE,135,6.0,14.0,17,0.00,,,0.00,meteohub,2014-04-23 17:07:00,
2014-04-23 12:12:00,50.5,8.6,30.12,SE,135,8.0,11.0,18,0.00,,,0.00,meteohub,2014-04-23 17:12:00,
2014-04-23 12:17:00,50.5,8.6,30.12,SE,135,9.0,11.0,18,0.00,,,0.00,meteohub,2014-04-23 17:17:00,
2014-04-23 12:22:00,50.7,9.9,30.11,SE,135,11.0,11.0,19,0.00,,,0.00,meteohub,2014-04-23 17:22:00,
2014-04-23 12:27:00,50.7,9.9,30.11,SE,135,11.0,12.0,19,0.00,,,0.00,meteohub,2014-04-23 17:27:00,
2014-04-23 12:32:00,50.9,10.0,30.11,SE,135,8.0,12.0,19,0.00,,,0.00,meteohub,2014-04-23 17:32:00,
2014-04-23 12:37:00,51.1,9.0,30.11,SE,135,11.0,12.0,18,0.00,,,0.00,meteohub,2014-04-23 17:37:00,
2014-04-23 12:42:00,51.3,9.1,30.12,SE,135,10.0,12.0,18,0.00,,,0.00,meteohub,2014-04-23 17:42:00,
2014-04-23 12:47:00,51.4,10.6,30.11,South,180,11.0,12.0,19,0.00,,,0.00,meteohub,2014-04-23 17:47:00,
2014-04-23 12:52:00,51.4,8.1,30.11,SE,135,10.0,16.0,17,0.00,,,0.00,meteohub,2014-04-23 17:52:00,
2014-04-23 12:57:00,51.3,9.1,30.11,SW,225,5.0,16.0,18,0.00,,,0.00,meteohub,2014-04-23 17:57:00,
2014-04-23 13:02:00,51.6,10.8,30.11,East,90,11.0,16.0,19,0.00,,,0.00,meteohub,2014-04-23 18:02:00,
2014-04-23 13:07:00,52.0,8.4,30.11,SE,135,4.0,14.0,17,0.00,,,0.00,meteohub,2014-04-23 18:07:00,
2014-04-23 13:12:00,52.5,7.5,30.11,East,90,10.0,11.0,16,0.00,,,0.00,meteohub,2014-04-23 18:12:00,
2014-04-23 13:17:00,52.3,10.0,30.10,East,90,4.0,11.0,18,0.00,,,0.00,meteohub,2014-04-23 18:17:00,
2014-04-23 13:22:00,52.5,11.5,30.10,East,90,14.0,21.0,19,0.00,,,0.00,meteohub,2014-04-23 18:22:00,
2014-04-23 13:27:00,53.1,6.6,30.09,ENE,68,14.0,21.0,15,0.00,,,0.00,meteohub,2014-04-23 18:27:00,
2014-04-23 13:32:00,52.7,4.8,30.09,ENE,68,16.0,21.0,14,0.00,,,0.00,meteohub,2014-04-23 18:32:00,
2014-04-23 13:37:00,52.3,7.5,30.09,ENE,68,14.0,18.0,16,0.00,,,0.00,meteohub,2014-04-23 18:37:00,
2014-04-23 13:42:00,52.3,8.8,30.09,ENE,68,5.0,18.0,17,0.00,,,0.00,meteohub,2014-04-23 18:42:00,
2014-04-23 13:47:00,52.5,9.0,30.09,NE,45,11.0,18.0,17,0.00,,,0.00,meteohub,2014-04-23 18:47:00,
2014-04-23 13:52:00,52.5,7.5,30.09,NE,45,14.0,15.0,16,0.00,,,0.00,meteohub,2014-04-23 18:52:00,
2014-04-23 13:57:00,52.7,7.7,30.09,ENE,68,12.0,14.0,16,0.00,,,0.00,meteohub,2014-04-23 18:57:00,
2014-04-23 14:02:00,52.5,6.3,30.09,NE,45,5.0,16.0,15,0.00,,,0.00,meteohub,2014-04-23 19:02:00,
2014-04-23 14:07:00,53.1,6.6,30.09,East,90,10.0,16.0,15,0.00,,,0.00,meteohub,2014-04-23 19:07:00,
2014-04-23 14:12:00,53.6,8.4,30.09,East,90,5.0,15.0,16,0.00,,,0.00,meteohub,2014-04-23 19:12:00,
2014-04-23 14:17:00,53.4,7.0,30.09,South,180,10.0,11.0,15,0.00,,,0.00,meteohub,2014-04-23 19:17:00,
2014-04-23 14:22:00,53.1,5.2,30.09,SE,135,13.0,13.0,14,0.00,,,0.00,meteohub,2014-04-23 19:22:00,
2014-04-23 14:27:00,52.7,6.3,30.08,NE,45,7.0,15.0,15,0.00,,,0.00,meteohub,2014-04-23 19:27:00,
2014-04-23 14:32:00,52.9,7.9,30.08,ENE,68,8.0,15.0,16,0.00,,,0.00,meteohub,2014-04-23 19:32:00,
2014-04-23 14:37:00,52.9,6.4,30.07,ENE,68,10.0,13.0,15,0.00,,,0.00,meteohub,2014-04-23 19:37:00,
2014-04-23 14:42:00,52.5,7.5,30.08,NE,45,11.0,14.0,16,0.00,,,0.00,meteohub,2014-04-23 19:42:00,
2014-04-23 14:47:00,52.5,4.6,30.08,East,90,11.0,15.0,14,0.00,,,0.00,meteohub,2014-04-23 19:47:00,
2014-04-23 14:52:00,52.3,4.5,30.08,East,90,6.0,15.0,14,0.00,,,0.00,meteohub,2014-04-23 19:52:00,
2014-04-23 14:57:00,52.2,5.9,30.08,East,90,14.0,15.0,15,0.00,,,0.00,meteohub,2014-04-23 19:57:00,
2014-04-23 15:02:00,52.0,7.2,30.07,ENE,68,12.0,15.0,16,0.00,,,0.00,meteohub,2014-04-23 20:02:00,
2014-04-23 15:07:00,52.3,8.8,30.08,East,90,11.0,15.0,17,0.00,,,0.00,meteohub,2014-04-23 20:07:00,
2014-04-23 15:12:00,52.5,9.0,30.08,East,90,10.0,15.0,17,0.00,,,0.00,meteohub,2014-04-23 20:12:00,
2014-04-23 15:17:00,52.7,9.1,30.08,East,90,8.0,12.0,17,0.00,,,0.00,meteohub,2014-04-23 20:17:00,
2014-04-23 15:22:00,52.5,7.5,30.08,East,90,6.0,13.0,16,0.00,,,0.00,meteohub,2014-04-23 20:22:00,
2014-04-23 15:27:00,52.5,7.5,30.08,East,90,10.0,13.0,16,0.00,,,0.00,meteohub,2014-04-23 20:27:00,
2014-04-23 15:32:00,52.5,7.5,30.08,East,90,4.0,11.0,16,0.00,,,0.00,meteohub,2014-04-23 20:32:00,
2014-04-23 15:37:00,52.3,8.8,30.08,East,90,8.0,10.0,17,0.00,,,0.00,meteohub,2014-04-23 20:37:00,
2014-04-23 15:42:00,52.2,9.9,30.08,East,90,9.0,12.0,18,0.00,,,0.00,meteohub,2014-04-23 20:42:00,
2014-04-23 15:47:00,52.2,9.9,30.07,East,90,8.0,12.0,18,0.00,,,0.00,meteohub,2014-04-23 20:47:00,
2014-04-23 15:52:00,52.0,9.7,30.08,East,90,8.0,12.0,18,0.00,,,0.00,meteohub,2014-04-23 20:52:00,
2014-04-23 15:57:00,52.2,9.9,30.08,South,180,5.0,12.0,18,0.00,,,0.00,meteohub,2014-04-23 20:57:00,
2014-04-23 16:02:00,52.2,11.1,30.07,South,180,7.0,12.0,19,0.00,,,0.00,meteohub,2014-04-23 21:02:00,
2014-04-23 16:07:00,52.3,8.8,30.07,East,90,11.0,12.0,17,0.00,,,0.00,meteohub,2014-04-23 21:07:00,
2014-04-23 16:12:00,52.2,9.9,30.07,East,90,5.0,11.0,18,0.00,,,0.00,meteohub,2014-04-23 21:12:00,
2014-04-23 16:14:00,52.2,9.9,30.07,East,90,5.0,11.0,18,0.00,,,0.00,meteohub,2014-04-23 21:14:00,
2014-04-23 16:19:00,52.0,9.7,30.07,East,90,10.0,11.0,18,0.00,,,0.00,meteohub,2014-04-23 21:19:00,
2014-04-23 16:24:00,51.8,9.7,30.07,East,90,11.0,12.0,18,0.00,,,0.00,meteohub,2014-04-23 21:24:00,
2014-04-23 16:29:00,51.8,9.7,30.06,East,90,9.0,12.0,18,0.00,,,0.00,meteohub,2014-04-23 21:29:00,
2014-04-23 16:34:00,51.8,10.8,30.06,East,90,4.0,12.0,19,0.00,,,0.00,meteohub,2014-04-23 21:34:00,
2014-04-23 16:40:00,51.8,9.7,30.06,East,90,8.0,11.0,18,0.00,,,0.00,meteohub,2014-04-23 21:40:00,
2014-04-23 16:45:00,51.8,9.7,30.06,East,90,11.0,11.0,18,0.00,,,0.00,meteohub,2014-04-23 21:45:00,
2014-04-23 16:50:00,51.6,9.5,30.06,East,90,9.0,10.0,18,0.00,,,0.00,meteohub,2014-04-23 21:50:00,
2014-04-23 16:55:00,51.8,9.7,30.06,East,90,7.0,11.0,18,0.00,,,0.00,meteohub,2014-04-23 21:55:00,
2014-04-23 17:00:00,51.8,9.7,30.06,East,90,8.0,11.0,18,0.00,,,0.00,meteohub,2014-04-23 22:00:00,
2014-04-23 17:05:00,51.8,10.8,30.06,East,90,8.0,11.0,19,0.00,,,0.00,meteohub,2014-04-23 22:05:00,
2014-04-23 17:10:00,51.8,9.7,30.06,ENE,68,9.0,12.0,18,0.00,,,0.00,meteohub,2014-04-23 22:10:00,
2014-04-23 17:15:00,51.8,9.7,30.05,East,90,8.0,12.0,18,0.00,,,0.00,meteohub,2014-04-23 22:15:00,
2014-04-23 17:20:00,51.6,9.5,30.05,East,90,9.0,12.0,18,0.00,,,0.00,meteohub,2014-04-23 22:20:00,
2014-04-23 17:25:00,51.4,10.6,30.05,East,90,8.0,14.0,19,0.00,,,0.00,meteohub,2014-04-23 22:25:00,
2014-04-23 17:30:00,51.4,10.6,30.05,East,90,8.0,14.0,19,0.00,,,0.00,meteohub,2014-04-23 22:30:00,
2014-04-23 17:35:00,51.4,10.6,30.05,East,90,6.0,10.0,19,0.00,,,0.00,meteohub,2014-04-23 22:35:00,
2014-04-23 17:40:00,51.3,10.4,30.05,SE,135,9.0,11.0,19,0.00,,,0.00,meteohub,2014-04-23 22:40:00,
2014-04-23 17:46:00,51.3,10.4,30.05,East,90,7.0,11.0,19,0.00,,,0.00,meteohub,2014-04-23 22:46:00,
2014-04-23 17:51:00,51.3,10.4,30.04,East,90,7.0,11.0,19,0.00,,,0.00,meteohub,2014-04-23 22:51:00,
2014-04-23 17:56:00,51.1,11.3,30.04,NE,45,10.0,10.0,20,0.00,,,0.00,meteohub,2014-04-23 22:56:00,
2014-04-23 18:01:00,51.1,11.3,30.04,ENE,68,10.0,10.0,20,0.00,,,0.00,meteohub,2014-04-23 23:01:00,
2014-04-23 18:06:00,51.1,11.3,30.04,ENE,68,10.0,10.0,20,0.00,,,0.00,meteohub,2014-04-23 23:06:00,
2014-04-23 18:11:00,50.9,12.4,30.04,East,90,8.0,10.0,21,0.00,,,0.00,meteohub,2014-04-23 23:11:00,
2014-04-23 18:16:00,50.7,12.2,30.04,East,90,8.0,10.0,21,0.00,,,0.00,meteohub,2014-04-23 23:16:00,
2014-04-23 18:21:00,50.7,13.3,30.03,East,90,8.0,11.0,22,0.00,,,0.00,meteohub,2014-04-23 23:21:00,
2014-04-23 18:26:00,50.7,13.3,30.03,ENE,68,9.0,11.0,22,0.00,,,0.00,meteohub,2014-04-23 23:26:00,
2014-04-23 18:32:00,50.7,14.2,30.03,East,90,8.0,11.0,23,0.00,,,0.00,meteohub,2014-04-23 23:32:00,
2014-04-23 18:37:00,50.5,14.2,30.03,East,90,9.0,11.0,23,0.00,,,0.00,meteohub,2014-04-23 23:37:00,
2014-04-23 18:42:00,50.5,13.1,30.03,ENE,68,11.0,11.0,22,0.00,,,0.00,meteohub,2014-04-23 23:42:00,
2014-04-23 18:47:00,50.5,14.2,30.02,ENE,68,12.0,16.0,23,0.00,,,0.00,meteohub,2014-04-23 23:47:00,
2014-04-23 18:52:00,50.4,12.9,30.02,East,90,11.0,16.0,22,0.00,,,0.00,meteohub,2014-04-23 23:52:00,
2014-04-23 18:57:00,50.4,14.0,30.02,East,90,11.0,12.0,23,0.00,,,0.00,meteohub,2014-04-23 23:57:00,
2014-04-23 19:02:00,50.2,13.8,30.01,East,90,13.0,16.0,23,0.00,,,0.00,meteohub,2014-04-24 00:02:00,
2014-04-23 19:07:00,50.2,13.8,30.01,East,90,13.0,16.0,23,0.00,,,0.00,meteohub,2014-04-24 00:07:00,
2014-04-23 19:12:00,50.0,14.5,30.01,East,90,10.0,14.0,24,0.00,,,0.00,meteohub,2014-04-24 00:12:00,
2014-04-23 19:17:00,50.0,14.5,30.01,East,90,10.0,15.0,24,0.00,,,0.00,meteohub,2014-04-24 00:17:00,
2014-04-23 19:22:00,50.0,14.5,30.00,East,90,12.0,15.0,24,0.00,,,0.00,meteohub,2014-04-24 00:22:00,
2014-04-23 19:27:00,49.8,14.5,30.01,East,90,12.0,15.0,24,0.00,,,0.00,meteohub,2014-04-24 00:27:00,
2014-04-23 19:32:00,49.6,14.4,30.00,East,90,15.0,15.0,24,0.00,,,0.00,meteohub,2014-04-24 00:32:00,
2014-04-23 19:38:00,49.5,14.2,29.99,East,90,14.0,16.0,24,0.00,,,0.00,meteohub,2014-04-24 00:38:00,
2014-04-23 19:43:00,49.3,14.0,30.00,East,90,17.0,19.0,24,0.00,,,0.00,meteohub,2014-04-24 00:43:00,
2014-04-23 19:48:00,49.1,13.8,29.99,East,90,13.0,20.0,24,0.00,,,0.00,meteohub,2014-04-24 00:48:00,
2014-04-23 19:53:00,48.9,13.6,29.99,East,90,19.0,20.0,24,0.00,,,0.00,meteohub,2014-04-24 00:53:00,
2014-04-23 19:58:00,48.6,13.5,29.98,East,90,17.0,20.0,24,0.00,,,0.00,meteohub,2014-04-24 00:58:00,
2014-04-23 20:03:00,48.4,14.2,29.98,SE,135,14.0,19.0,25,0.00,,,0.00,meteohub,2014-04-24 01:03:00,
2014-04-23 20:08:00,48.7,14.5,29.98,East,90,16.0,19.0,25,0.00,,,0.00,meteohub,2014-04-24 01:08:00,
2014-04-23 20:13:00,48.6,14.4,29.98,East,90,19.0,26.0,25,0.00,,,0.00,meteohub,2014-04-24 01:13:00,
2014-04-23 20:18:00,48.6,14.4,29.98,East,90,18.0,26.0,25,0.00,,,0.00,meteohub,2014-04-24 01:18:00,
2014-04-23 20:23:00,48.4,14.2,29.98,East,90,14.0,25.0,25,0.00,,,0.00,meteohub,2014-04-24 01:23:00,
2014-04-23 20:28:00,48.2,14.9,29.98,SE,135,11.0,25.0,26,0.00,,,0.00,meteohub,2014-04-24 01:28:00,
2014-04-23 20:33:00,48.0,15.6,29.98,ESE,113,15.0,25.0,27,0.00,,,0.00,meteohub,2014-04-24 01:33:00,
2014-04-23 20:38:00,47.1,18.0,29.99,ENE,68,11.0,20.0,31,0.00,,,0.00,meteohub,2014-04-24 01:38:00,
2014-04-23 20:43:00,46.9,17.8,30.00,ESE,113,10.0,15.0,31,0.00,,,0.00,meteohub,2014-04-24 01:43:00,
2014-04-23 20:49:00,46.8,18.5,30.00,East,90,9.0,15.0,32,0.00,,,0.00,meteohub,2014-04-24 01:49:00,
2014-04-23 20:54:00,46.8,17.8,30.00,ESE,113,11.0,15.0,31,0.00,,,0.00,meteohub,2014-04-24 01:54:00,
2014-04-23 20:59:00,46.9,17.1,30.00,ESE,113,15.0,15.0,30,0.00,,,0.00,meteohub,2014-04-24 01:59:00,
2014-04-23 21:04:00,46.6,17.6,30.00,East,90,13.0,18.0,31,0.00,,,0.00,meteohub,2014-04-24 02:04:00,
2014-04-23 21:09:00,46.4,20.3,29.99,East,90,11.0,18.0,35,0.00,,,0.00,meteohub,2014-04-24 02:09:00,
2014-04-23 21:14:00,45.9,21.7,30.00,East,90,17.0,18.0,38,0.00,,,0.00,meteohub,2014-04-24 02:14:00,
2014-04-23 21:19:00,45.1,23.4,29.99,East,90,10.0,15.0,42,0.00,,,0.00,meteohub,2014-04-24 02:19:00,
2014-04-23 21:24:00,44.2,23.2,29.99,East,90,14.0,17.0,43,0.00,,,0.00,meteohub,2014-04-24 02:24:00,
2014-04-23 21:29:00,43.9,23.9,29.99,SE,135,11.0,17.0,45,0.00,,,0.00,meteohub,2014-04-24 02:29:00,
2014-04-23 21:35:00,43.7,24.3,29.99,East,90,12.0,15.0,46,0.00,,,0.00,meteohub,2014-04-24 02:35:00,
2014-04-23 21:40:00,42.8,24.4,29.99,East,90,9.0,14.0,48,0.00,,,0.00,meteohub,2014-04-24 02:40:00,
2014-04-23 21:45:00,42.4,25.5,30.00,East,90,6.0,12.0,51,0.01,,,0.01,meteohub,2014-04-24 02:45:00,
2014-04-23 21:50:00,42.1,26.2,30.00,East,90,6.0,12.0,53,0.02,,,0.02,meteohub,2014-04-24 02:50:00,
2014-04-23 21:55:00,41.7,26.8,30.01,East,90,8.0,12.0,55,0.02,,,0.02,meteohub,2014-04-24 02:55:00,
2014-04-23 22:00:00,41.5,27.9,30.01,East,90,9.0,9.0,58,0.02,,,0.02,meteohub,2014-04-24 03:00:00,
2014-04-23 22:05:00,41.5,27.9,30.00,East,90,9.0,9.0,58,0.02,,,0.02,meteohub,2014-04-24 03:05:00,
2014-04-23 22:10:00,40.6,28.6,29.99,East,90,16.0,16.0,62,0.02,,,0.02,meteohub,2014-04-24 03:10:00,
2014-04-23 22:15:00,40.3,28.8,29.99,East,90,11.0,16.0,63,0.02,,,0.02,meteohub,2014-04-24 03:15:00,
2014-04-23 22:21:00,40.1,28.0,30.00,East,90,11.0,16.0,62,0.02,,,0.02,meteohub,2014-04-24 03:21:00,